User: anonymous   Login
Location: Caltech
(34.1382°N, 118.1253°W)
Time: 09:27:39
(UTC-07:00)
Language:

RESURS DK-1 - Orbit

View from above orbital plane
View from above orbital plane
View from above satellite
View from above satellite

Ground track
Ground track

The orbit data is extracted from the following two-line orbital elements,

1 29228U 06021A   16151.52065057  .00000251  00000-0  26602-4 0  9994
2 29228  69.9381 351.4906 0007145 227.8656 132.1904 15.01909909550645
Epoch (UTC): 30 May 2016 12:29:44
Eccentricity: 0.0007145
inclination: 69.9381°
perigee height: 556 km
apogee height: 566 km
right ascension of ascending node: 351.4906°
argument of perigee: 227.8656°
revolutions per day: 15.01909909
mean anomaly at epoch: 132.1904°
orbit number at epoch: 55064

The dashed part of the orbit path shows where the satellite is in the earth's shadow,  

DLR